Location: ??????
(42.0089°N, 44.3281°E)
Time: 18:33:36
(UTC+00:00)

USA 267 - Pass Details

Date: 31 May 2022
Orbit: 1101 x 1106 km, 123.0° (Epoch: 28 June)

Event Time Altitude Azimuth Distance (km) Brightness Sun altitude
Rises 20:30:41 0° 98° (E) 3,913 6.0 -25.6°
Reaches altitude 10° 20:33:19 10° 91° (E) 2,957 5.4 -25.7°
Maximum altitude 20:39:15 39° 26° (NNE) 1,596 4.5 -25.8°
Drops below altitude 10° 20:45:13 10° 320° (NW) 2,965 6.2 -25.9°
Sets 20:47:51 0° 313° (NW) 3,925 6.8 -25.9°
